Bintulu, Malaysia

1:13 AM +08 on January 23, 2018 (GMT +0800)
Bintulu

Weather History for WBGB - January, 2013

Change the Weather History Date:

Wednesday, January 2, 2013

  Actual Average Record
Temperature  
Mean Temperature 84 °F -  
Max Temperature 93 °F 85 °F - ()
Min Temperature 75 °F 74 °F - ()
Cooling Degree Days 19    
Growing Degree Days 34 (Base 50)    
Moisture  
Dew Point 77 °F    
Average Humidity 85    
Maximum Humidity 100    
Minimum Humidity 61    
Precipitation  
Precipitation 0.00 in 0.57 in - ()
Sea Level Pressure  
Sea Level Pressure 29.79 in    
Wind  
Wind Speed 3 mph ()    
Max Wind Speed 7 mph    
Max Gust Speed -    
Visibility 8.7 miles    
Events      
T = Trace of Precipitation, MM = Missing Value Source: Averaged Metar Reports

Daily Weather History Graph

Daily Weather History Graph

Search for Another Location

Airport or City:

Trip Planner

Search our weather history database for the weather conditions in past years. The results will help you decide how hot, cold, wet, or windy it might be!

Date:

Astronomy

Jan. 02, 2013 Rise Set
Actual Time 6:33 AM +08 6:30 PM +08
Civil Twilight 6:11 AM +08 6:52 PM +08
Nautical Twilight 5:45 AM +08 7:18 PM +08
Astronomical Twilight 5:18 AM +08 7:44 PM +08
Moon 10:20 PM +08 (1/2) 9:58 AM +08 (1/2)
Length of Visible Light 12h 41m
Length of Day
11h 56m
Waning Gibbous, 80% of the Moon is Illuminated
Jan 2
Waning Gibbous
Jan 5
Last Quarter
Jan 12
New
Jan 19
First Quarter
Jan 27
Full

Hourly Weather History & Observations

Time (+08) Temp. Heat Index Dew Point Humidity Pressure Visibility Wind Dir Wind Speed Gust Speed Precip Events Conditions
12:00 AM 77.0 °F - 77.0 °F 100% 29.83 in 6.2 mi East 2.3 mph - N/A   Mostly Cloudy
1:00 AM 77.0 °F - 77.0 °F 100% 29.80 in 6.2 mi East 3.5 mph - N/A   Mostly Cloudy
2:00 AM 77 °F - 76 °F 95% 29.81 in 11 mi East 3.5 mph - -   Scattered Clouds
2:00 AM 77.0 °F - 75.2 °F 94% 29.80 in 6.2 mi East 3.5 mph - N/A   Mostly Cloudy
3:00 AM 77.0 °F - 75.2 °F 94% 29.77 in 6.2 mi Calm Calm - N/A   Mostly Cloudy
4:00 AM 75.2 °F - 75.2 °F 100% 29.74 in 6.2 mi East 3.5 mph - N/A   Mostly Cloudy
5:00 AM 76 °F - 75 °F 97% 29.78 in 11 mi East 3.5 mph - -   Scattered Clouds
5:00 AM 75.2 °F - 75.2 °F 100% 29.77 in 6.2 mi East 3.5 mph - N/A   Mostly Cloudy
6:00 AM 75.2 °F - 75.2 °F 100% 29.77 in 6.2 mi East 3.5 mph - N/A   Mostly Cloudy
7:00 AM 77.0 °F - 75.2 °F 94% 29.77 in 6.2 mi East 3.5 mph - N/A   Mostly Cloudy
8:00 AM 79 °F - 77 °F 90% 29.82 in 19 mi ESE 3.5 mph - -   Scattered Clouds
8:00 AM 78.8 °F - 77.0 °F 94% 29.80 in 6.2 mi ESE 3.5 mph - N/A   Mostly Cloudy
9:00 AM 82.4 °F 90.9 °F 77.0 °F 84% 29.83 in 6.2 mi East 4.6 mph - N/A   Mostly Cloudy
10:00 AM 84.2 °F 94.1 °F 77.0 °F 79% 29.83 in 6.2 mi SE 2.3 mph - N/A   Mostly Cloudy
11:00 AM 85 °F - 77 °F 71% 29.82 in 19 mi ENE 3.5 mph - -   Partly Cloudy
11:00 AM 86.0 °F 96.9 °F 77.0 °F 74% 29.80 in 6.2 mi ENE 3.5 mph - N/A   Mostly Cloudy
12:00 PM 87.8 °F 99.7 °F 77.0 °F 70% 29.80 in 6.2 mi SE 3.5 mph - N/A   Mostly Cloudy
1:00 PM 91.4 °F 105.1 °F 77.0 °F 63% 29.77 in 6.2 mi SE 2.3 mph - N/A   Mostly Cloudy
2:00 PM 91 °F - 79 °F 61% 29.75 in 19 mi NW 5.8 mph - -   Partly Cloudy
2:00 PM 91.4 °F 107.2 °F 78.8 °F 66% 29.74 in 6.2 mi NW 5.8 mph - N/A   Mostly Cloudy
3:00 PM 91.4 °F 107.2 °F 78.8 °F 66% 29.71 in 6.2 mi NW 6.9 mph - N/A   Mostly Cloudy
5:00 PM 88 °F - 78 °F 65% 29.72 in 19 mi NNW 5.8 mph - -   Scattered Clouds
6:00 PM 86.0 °F 96.9 °F 77.0 °F 74% 29.74 in 6.2 mi NNW 5.8 mph - N/A   Mostly Cloudy
8:00 PM 82 °F - 77 °F 82% 29.80 in 11 mi NNE 2.3 mph - -   Scattered Clouds
9:00 PM 80.6 °F 87.1 °F 77.0 °F 89% 29.80 in 6.2 mi North 2.3 mph - N/A   Mostly Cloudy
10:00 PM 80.6 °F 87.1 °F 77.0 °F 89% 29.83 in 6.2 mi NNE 1.2 mph - N/A   Mostly Cloudy
11:00 PM 79 °F - 78 °F 94% 29.83 in 11 mi Calm Calm - -   Partly Cloudy
11:00 PM 78.8 °F - 77.0 °F 94% 29.83 in 6.2 mi Calm Calm - N/A   Mostly Cloudy